User: anonymous   Login
Location: Newark
(40.3500°N, 15.2333°E)
Time: 19:17:42
(UTC+00:00)
Language:

S-56A Canister/Altair - Orbit

View from above orbital plane
View from above orbital plane
View from above satellite
View from above satellite

Ground track
Ground track

The orbit data is extracted from the following two-line orbital elements,

1    82U 61004B   20018.51844702 -.00000034 +00000-0 +23859-4 0  9992
2    82 038.8573 037.2602 1173555 075.1077 297.6380 12.26059432789283
Epoch (UTC): 18 January 2020 12:26:33
Eccentricity: 0.1173555
inclination: 38.8573°
perigee height: 634 km
apogee height: 2498 km
right ascension of ascending node: 37.2602°
argument of perigee: 75.1077°
revolutions per day: 12.26059432
mean anomaly at epoch: 297.6380°
orbit number at epoch: 78928

The dashed part of the orbit path shows where the satellite is in the earth's shadow,  

DLR